This demonstration page uses our WeatherBlox Daily Observations layout. Learn more.

Left ArrowRight Arrow

44.89941, -97.11507

Hourly Observations for January 19, 2021

Temp ( °F °C ) Dew Point ( °F °C ) Humidity (%) Winds ( mph kmh ) Pressure ( in mb ) Visibility ( mi km ) Precip ( " mm )
12:53 am 00:53 Cloudy 19 -7.2 17 -8.3 92 92 WNW 7 11 30.15 1021 10 16 0.00 0.00
1:06 am 01:06 Cloudy 19 -7.2 17 -8.3 92 92 W 6 9 30.20 1023 10 16 0.00 0.00
1:46 am 01:46 Cloudy 19 -7.2 17 -8.3 92 92 WSW 9 15 30.19 1022 9 14 0.00 0.00
1:53 am 01:53 Cloudy 19 -7.2 17 -8.3 92 92 SW 9 15 30.13 1020 9 14 0.00 0.00
2:07 am 02:07 Cloudy with Light Snow 20 -6.7 18 -7.8 92 92 SW 9 15 30.18 1022 2 3 0.00 0.00
2:11 am 02:11 Cloudy with Light Snow 20 -6.7 18 -7.8 92 92 SW 10 17 30.18 1022 2 3 0.00 0.00
2:20 am 02:20 Cloudy with Light Snow 20 -6.7 18 -7.8 92 92 SSW 9 15 30.17 1022 3 4 0.00 0.00
2:27 am 02:27 Cloudy with Light Snow 20 -6.7 18 -7.8 92 92 SSW 12 19 30.17 1022 4 6 0.00 0.00
2:53 am 02:53 Cloudy 20 -6.7 19 -7.2 96 96 SW 9 15 30.11 1020 7 11 0.00 0.00
3:10 am 03:10 Cloudy with Light Snow 21 -6.1 19 -7.2 92 92 SSW 12 19 30.14 1021 2 3 0.00 0.00
3:23 am 03:23 Cloudy with Light Snow 21 -6.1 20 -6.7 96 96 SSW 13 20 30.14 1021 2 3 0.00 0.00
3:33 am 03:33 Cloudy with Light Snow 21 -6.1 20 -6.7 96 96 SSW 15 24 30.14 1021 4 6 0.00 0.00
3:53 am 03:53 Cloudy with Light Snow 21 -6.1 20 -6.7 96 96 SSW 14 22 30.08 1019 2 2 0.00 0.00
4:02 am 04:02 Cloudy with Light Snow 21 -6.1 20 -6.7 96 96 SSW 16 26 30.12 1020 1 2 0.00 0.00
4:21 am 04:21 Cloudy with Light Snow 22 -5.6 20 -6.7 92 92 SSW 16 26 30.12 1020 2 3 0.00 0.00
4:28 am 04:28 Cloudy with Light Snow 22 -5.6 20 -6.7 92 92 SW 15 24 30.11 1020 3 4 0.00 0.00
4:39 am 04:39 Cloudy with Light Snow 23 -5 21 -6.1 92 92 SW 16 26 30.11 1020 2 2 0.00 0.00
4:53 am 04:53 Cloudy with Light Snow 23 -5 22 -5.6 96 96 SW 14 22 30.05 1018 2 3 0.00 0.00
5:05 am 05:05 Cloudy with Light Snow 24 -4.4 23 -5 96 96 WSW 14 22 30.09 1019 2 3 0.00 0.00
5:13 am 05:13 Cloudy with Light Snow 25 -3.9 23 -5 92 92 WSW 15 24 30.09 1019 3 4 0.00 0.00
5:26 am 05:26 Cloudy with Light Snow 25 -3.9 24 -4.4 96 96 WSW 15 24 30.09 1019 3 4 0.00 0.00
5:48 am 05:48 Cloudy with Light Snow 27 -3 25 -4 93 93 WSW 16 26 30.07 1018 5 8 0.00 0.00
5:53 am 05:53 Cloudy with Light Snow 27 -2.8 25 -3.9 92 92 WSW 18 30 30.04 1017 5 8 0.00 0.00
6:19 am 06:19 Windy with Snow Likely 27 -2.8 26 -3.3 96 96 W 21 33 30.07 1018 9 14 0.00 0.00
6:53 am 06:53 Cloudy 30 -1.1 27 -2.8 88 88 W 17 28 30.04 1017 10 16 0.00 0.00
7:04 am 07:04 Cloudy 30 -1.1 27 -2.8 88 88 WNW 20 31 30.07 1018 10 16 0.00 0.00
7:13 am 07:13 Cloudy 30 -1.1 26 -3.3 85 85 WNW 20 31 30.07 1018 9 14 0.00 0.00
7:53 am 07:53 Cloudy with Mist and Fog 27 -2.8 24 -4.4 89 89 WNW 26 43 30.07 1018 3 5 0.02 0.51
8:15 am 08:15 Windy with Snow Likely 26 -3.3 24 -4.4 92 92 WNW 25 41 30.12 1020 2 3 0.00 0.00
8:23 am 08:23 Cloudy with Mist and Fog 26 -3.3 24 -4.4 92 92 NW 26 43 30.13 1020 3 4 0.00 0.00
8:27 am 08:27 Windy with Snow Likely 26 -3.3 24 -4.4 92 92 NW 29 46 30.13 1020 1 2 0.00 0.00
8:38 am 08:38 Windy with Snow Likely 25 -3.9 23 -5 92 92 NW 28 44 30.16 1021 1 1 0.00 0.00
8:43 am 08:43 Cloudy with Mist and Fog 25 -3.9 22 -5.6 88 88 NW 28 44 30.17 1022 1 2 0.00 0.00
8:53 am 08:53 Cloudy with Mist and Fog 23 -5 21 -6.1 92 92 NW 29 46 30.16 1021 1 1 0.00 0.00
9:00 am 09:00 Cloudy with Mist and Fog 22 -5.6 19 -7.2 89 89 NW 25 41 30.21 1023 2 2 0.00 0.00
9:37 am 09:37 Cloudy with Mist and Fog 17 -8.3 14 -10 88 88 N 23 37 30.28 1025 3 5 0.00 0.00
9:53 am 09:53 Cloudy with Mist and Fog 15 -9.4 11 -11.7 84 84 NNW 25 41 30.25 1025 3 5 0.00 0.00
10:34 am 10:34 Cloudy with Light Snow 14 -10 10 -12.2 84 84 NNW 18 30 30.36 1028 3 4 0.00 0.00
10:40 am 10:40 Windy with Snow Likely 14 -10 10 -12.2 84 84 NNW 21 33 30.37 1028 3 5 0.00 0.00
10:53 am 10:53 Cloudy with Light Snow 13 -10.6 9 -12.8 84 84 NNW 18 30 30.32 1027 3 4 0.00 0.00
11:22 am 11:22 Cloudy with Light Snow 13 -10.6 8 -13.3 81 81 NNW 17 28 30.39 1029 4 6 0.00 0.00
11:37 am 11:37 Cloudy with Light Snow 13 -10.6 9 -12.8 84 84 NNW 18 30 30.40 1029 2 3 0.00 0.00
11:42 am 11:42 Windy with Snow Likely 13 -10.6 8 -13.3 81 81 NNW 20 31 30.40 1029 3 5 0.00 0.00
11:53 am 11:53 Mostly Cloudy 12 -11.1 7 -13.9 80 80 NNW 20 31 30.34 1027 9 14 0.00 0.00
12:49 pm 12:49 Mostly Cloudy 12 -11 7 -14 79 79 NW 15 24 30.41 1030 10 16 0.00 0.00
12:53 pm 12:53 Mostly Cloudy 13 -10.6 7 -13.9 77 77 NW 18 30 30.35 1028 10 16 0.00 0.00
1:53 pm 13:53 Cloudy 13 -10.6 7 -13.9 77 77 NNW 17 28 30.36 1028 10 16 0.00 0.00
2:53 pm 14:53 Cloudy with Haze 13 -10.6 6 -14.4 74 74 NW 17 28 30.38 1029 6 10 0.00 0.00
3:13 pm 15:13 Cloudy with Light Snow 11 -11.7 5 -15 77 77 NW 16 26 30.45 1031 3 5 0.00 0.00
3:45 pm 15:45 Mostly Cloudy 11 -11.7 4 -15.6 73 73 NW 13 20 30.45 1031 9 14 0.00 0.00
3:53 pm 15:53 Partly Cloudy 11 -11.7 5 -15 77 77 NW 13 20 30.38 1029 10 16 0.00 0.00
4:53 pm 16:53 Sunny 10 -12.2 4 -15.6 76 76 NW 8 13 30.38 1029 10 16 0.00 0.00
5:53 pm 17:53 Clear 8 -13.3 3 -16.1 80 80 NW 3 6 30.36 1028 10 16 0.00 0.00
6:53 pm 18:53 Clear 3 -16.1 1 -17.2 91 91 SW 5 7 30.33 1027 10 16 0.00 0.00
7:53 pm 19:53 Clear 4 -15.6 1 -17.2 88 88 SSW 7 11 30.33 1027 10 16 0.00 0.00
8:53 pm 20:53 Clear 5 -15 3 -16.1 91 91 S 7 11 30.29 1026 10 16 0.00 0.00
9:53 pm 21:53 Clear 6 -14.4 4 -15.6 91 91 S 8 13 30.26 1025 10 16 0.00 0.00
10:53 pm 22:53 Clear 8 -13.3 6 -14.4 92 92 S 8 13 30.24 1024 10 16 0.00 0.00
11:53 pm 23:53 Clear 11 -11.7 8 -13.3 88 88 S 12 19 30.18 1022 10 16 0.00 0.00

Powered by AerisWeather